| time (UTC) | temp C | wind direction | speed KPH | gust KPH | rain 1hr cm | rain 24hr cm | rain mn cm | humidity % | barometer mb |
| 20260903034554 | 10 | 205 | 0.0 | 0.0 | 0.00 | 0.00 | 0.00 | 75 | 1008.9 |
| 20260903033111 | 11 | 215 | 0.0 | 0.0 | 0.00 | 0.00 | 0.00 | 74 | 1008.8 |
| 20260903031556 | 11 | 280 | 0.0 | 0.0 | 0.00 | 0.00 | 0.00 | 73 | 1008.9 |
| 20260903030056 | 11 | 241 | 0.0 | 0.0 | 0.00 | 0.00 | 0.00 | 73 | 1008.9 |
| 20260903024554 | 11 | 203 | 0.0 | 0.0 | 0.00 | 0.00 | 0.00 | 72 | 1008.9 |
| 20260903023054 | 11 | 257 | 0.0 | 0.0 | 0.00 | 0.00 | 0.00 | 72 | 1008.9 |
| 20260903021604 | 11 | 234 | 0.0 | 0.0 | 0.00 | 0.00 | 0.00 | 72 | 1008.9 |
| 20260903020049 | 11 | 246 | 0.0 | 0.0 | 0.00 | 0.00 | 0.00 | 72 | 1008.9 |
| 20260903014550 | 11 | 232 | 0.0 | 0.0 | 0.00 | 0.00 | 0.00 | 72 | 1009.2 |
| 20260903013045 | 12 | 225 | 0.0 | 0.0 | 0.00 | 0.00 | 0.00 | 72 | 1009.2 |
| 20260903011546 | 12 | 272 | 0.0 | 0.0 | 0.00 | 0.00 | 0.00 | 73 | 1009.1 |
| 20260903010048 | 12 | 243 | 0.0 | 0.0 | 0.00 | 0.00 | 0.00 | 73 | 1009.2 |
| 20260903004555 | 12 | 280 | 0.0 | 0.0 | 0.00 | 0.00 | 0.00 | 72 | 1009.2 |
| 20260903003042 | 12 | 235 | 0.0 | 0.0 | 0.00 | 0.00 | 0.00 | 71 | 1009.3 |
| 20260903001542 | 12 | 209 | 0.0 | 0.0 | 0.00 | 0.00 | 0.00 | 71 | 1009.3 |
| 20260903000041 | 12 | 190 | 0.0 | 0.0 | 0.00 | 0.00 | 0.00 | 71 | 1009.3 |
| 20260902234540 | 12 | 221 | 0.0 | 0.0 | 0.00 | 0.00 | 0.00 | 72 | 1009.3 |
| 20260902233045 | 12 | 247 | 0.0 | 0.0 | 0.00 | 0.00 | 0.00 | 73 | 1009.4 |
| 20260902231549 | 13 | 242 | 0.0 | 0.0 | 0.00 | 0.00 | 0.00 | 74 | 1009.3 |
| 20260902230042 | 13 | 279 | 0.0 | 0.0 | 0.00 | 0.00 | 0.00 | 75 | 1009.1 |
| 20260902224541 | 13 | 259 | 0.0 | 0.0 | 0.00 | 0.00 | 0.00 | 76 | 1009.3 |
| 20260902223036 | 13 | 240 | 0.0 | 0.0 | 0.00 | 0.00 | 0.00 | 77 | 1009.3 |
| 20260902221534 | 13 | 230 | 0.0 | 0.0 | 0.00 | 0.00 | 0.00 | 77 | 1009.4 |
| 20260902220035 | 13 | 262 | 0.0 | 0.0 | 0.00 | 0.00 | 0.00 | 77 | 1009.4 |
| 20260902214531 | 13 | 239 | 0.0 | 0.0 | 0.00 | 0.00 | 0.05 | 76 | 1009.4 |
| 20260902213031 | 13 | 360 | 0.0 | 0.0 | 0.00 | 0.00 | 0.05 | 76 | 1009.4 |
| 20260902211532 | 13 | 225 | 0.0 | 0.0 | 0.00 | 0.00 | 0.05 | 76 | 1009.4 |
| 20260902210036 | 13 | 263 | 0.0 | 0.0 | 0.00 | 0.00 | 0.05 | 76 | 1009.3 |
| 20260902204540 | 13 | 227 | 0.0 | 0.0 | 0.00 | 0.00 | 0.05 | 75 | 1009.4 |
| 20260902203031 | 13 | 265 | 0.0 | 0.0 | 0.00 | 0.00 | 0.05 | 75 | 1009.5 |
| 20260902201532 | 13 | 360 | 0.0 | 0.0 | 0.00 | 0.00 | 0.05 | 76 | 1009.5 |
| 20260902200030 | 13 | 250 | 0.0 | 0.0 | 0.00 | 0.00 | 0.05 | 76 | 1009.7 |
| 20260902194529 | 13 | 283 | 0.0 | 0.0 | 0.00 | 0.00 | 0.05 | 76 | 1009.7 |
| 20260902193035 | 13 | 246 | 0.0 | 0.0 | 0.00 | 0.00 | 0.05 | 76 | 1009.6 |
| 20260902191534 | 13 | 229 | 0.0 | 0.0 | 0.00 | 0.00 | 0.05 | 76 | 1009.6 |
| 20260902190033 | 13 | 237 | 0.0 | 0.0 | 0.00 | 0.00 | 0.05 | 76 | 1009.6 |
| 20260902184534 | 14 | 180 | 0.0 | 0.0 | 0.00 | 0.00 | 0.05 | 75 | 1009.7 |
| 20260902183039 | 14 | 236 | 0.0 | 0.0 | 0.00 | 0.00 | 0.05 | 75 | 1009.6 |
| 20260902181527 | 14 | 202 | 0.0 | 0.0 | 0.00 | 0.00 | 0.05 | 74 | 1009.5 |
| 20260902180027 | 14 | 233 | 0.0 | 0.0 | 0.00 | 0.00 | 0.05 | 73 | 1009.6 |
| 20260902174526 | 15 | 265 | 0.0 | 0.0 | 0.00 | 0.00 | 0.05 | 75 | 1009.7 |
| 20260902173028 | 15 | 254 | 0.0 | 0.0 | 0.00 | 0.00 | 0.05 | 74 | 1009.6 |
| 20260902171527 | 15 | 266 | 0.0 | 0.0 | 0.00 | 0.00 | 0.05 | 73 | 1009.5 |
| 20260902170026 | 15 | 360 | 0.0 | 0.0 | 0.00 | 0.00 | 0.05 | 73 | 1009.6 |
| 20260902164526 | 16 | 317 | 0.0 | 0.0 | 0.00 | 0.00 | 0.05 | 71 | 1009.7 |
| 20260902163026 | 16 | 109 | 0.0 | 0.0 | 0.00 | 0.00 | 0.05 | 70 | 1009.6 |
| 20260902161526 | 17 | 360 | 0.0 | 0.0 | 0.00 | 0.00 | 0.05 | 69 | 1009.7 |
| 20260902160026 | 17 | 295 | 0.0 | 0.0 | 0.00 | 0.00 | 0.05 | 66 | 1009.7 |
| 20260902154532 | 17 | 210 | 0.0 | 0.0 | 0.00 | 0.00 | 0.05 | 65 | 1009.7 |
| 20260902153026 | 17 | 206 | 0.0 | 0.0 | 0.00 | 0.00 | 0.05 | 65 | 1009.7 |
| 20260902151526 | 17 | 360 | 0.0 | 0.0 | 0.00 | 0.00 | 0.05 | 68 | 1009.7 |
| 20260902150026 | 17 | 271 | 0.0 | 0.0 | 0.00 | 0.00 | 0.05 | 71 | 1009.7 |
| 20260902144524 | 17 | 283 | 0.0 | 0.0 | 0.00 | 0.00 | 0.05 | 70 | 1009.8 |
| 20260902143024 | 17 | 240 | 0.0 | 0.0 | 0.00 | 0.00 | 0.05 | 68 | 1009.9 |
| 20260902141526 | 18 | 296 | 0.0 | 0.0 | 0.00 | 0.00 | 0.05 | 67 | 1009.7 |
| 20260902140035 | 18 | 277 | 0.0 | 0.0 | 0.00 | 0.00 | 0.05 | 65 | 1009.7 |
| 20260902134527 | 17 | 307 | 0.0 | 0.0 | 0.00 | 0.00 | 0.05 | 67 | 1009.8 |
| 20260902133028 | 18 | 277 | 0.0 | 0.0 | 0.00 | 0.00 | 0.05 | 62 | 1009.8 |
| 20260902131529 | 18 | 244 | 0.0 | 0.0 | 0.00 | 0.00 | 0.05 | 60 | 1010.0 |
| 20260902130025 | 18 | 99 | 0.0 | 0.0 | 0.00 | 0.00 | 0.05 | 58 | 1009.9 |
| 20260902124531 | 18 | 237 | 0.0 | 0.0 | 0.00 | 0.00 | 0.05 | 60 | 1009.8 |
| 20260902123024 | 18 | 360 | 0.0 | 0.0 | 0.00 | 0.00 | 0.05 | 60 | 1009.9 |
| 20260902121524 | 18 | 360 | 0.0 | 0.0 | 0.00 | 0.00 | 0.05 | 59 | 1010.0 |
| 20260902120022 | 18 | 360 | 0.0 | 0.0 | 0.00 | 0.00 | 0.05 | 61 | 1010.0 |
| 20260902114523 | 19 | 360 | 0.0 | 0.0 | 0.00 | 0.00 | 0.05 | 61 | 1010.0 |
| 20260902113020 | 18 | 360 | 0.0 | 0.0 | 0.00 | 0.00 | 0.05 | 66 | 1010.1 |
| 20260902111520 | 18 | 360 | 0.0 | 0.0 | 0.00 | 0.00 | 0.05 | 63 | 1010.1 |
| 20260902110021 | 18 | 360 | 0.0 | 0.0 | 0.00 | 0.00 | 0.05 | 62 | 1010.2 |
| 20260902104520 | 18 | 272 | 0.0 | 0.0 | 0.00 | 0.00 | 0.05 | 63 | 1010.1 |
| 20260902103033 | 18 | 360 | 0.0 | 0.0 | 0.00 | 0.00 | 0.05 | 61 | 1010.2 |
| 20260902101528 | 18 | 316 | 0.0 | 0.0 | 0.00 | 0.00 | 0.05 | 60 | 1010.1 |
| 20260902100018 | 18 | 178 | 0.0 | 0.0 | 0.00 | 0.00 | 0.05 | 60 | 1010.1 |
| 20260902094517 | 18 | 285 | 0.0 | 0.0 | 0.00 | 0.00 | 0.05 | 58 | 1010.1 |
| 20260902093016 | 18 | 261 | 0.0 | 0.0 | 0.00 | 0.00 | 0.05 | 61 | 1010.1 |
| 20260902091516 | 18 | 355 | 0.0 | 0.0 | 0.00 | 0.00 | 0.05 | 60 | 1010.1 |
| 20260902090017 | 18 | 273 | 0.0 | 0.0 | 0.00 | 0.00 | 0.05 | 62 | 1009.9 |
| 20260902084521 | 17 | 287 | 0.0 | 0.0 | 0.00 | 0.00 | 0.05 | 61 | 1009.8 |
| 20260902083013 | 17 | 297 | 0.0 | 0.0 | 0.00 | 0.00 | 0.05 | 65 | 1009.7 |
| 20260902081513 | 17 | 320 | 0.0 | 0.0 | 0.00 | 0.00 | 0.05 | 66 | 1009.6 |
| 20260902080009 | 17 | 360 | 0.0 | 0.0 | 0.00 | 0.00 | 0.05 | 69 | 1009.6 |
| 20260902074506 | 16 | 206 | 0.0 | 0.0 | 0.00 | 0.00 | 0.05 | 73 | 1009.4 |
| 20260902073004 | 16 | 279 | 0.0 | 0.0 | 0.00 | 0.00 | 0.05 | 78 | 1009.2 |
| 20260902071502 | 16 | 268 | 0.0 | 0.0 | 0.00 | 0.00 | 0.05 | 81 | 1009.1 |
| 20260902070001 | 16 | 259 | 0.0 | 0.0 | 0.00 | 0.00 | 0.05 | 85 | 1009.0 |
| 20260902064619 | 16 | 257 | 0.0 | 0.0 | 0.00 | 0.00 | 0.05 | 87 | 1008.9 |
| 20260902063100 | 16 | 256 | 0.0 | 0.0 | 0.00 | 0.00 | 0.05 | 87 | 1008.9 |
| 20260902061558 | 15 | 360 | 0.0 | 0.0 | 0.00 | 0.00 | 0.05 | 89 | 1009.0 |
| 20260902060110 | 15 | 228 | 0.0 | 0.0 | 0.00 | 0.00 | 0.05 | 90 | 1008.9 |
| 20260902054559 | 15 | 213 | 0.0 | 0.0 | 0.00 | 0.00 | 0.05 | 90 | 1008.8 |
| 20260902053056 | 15 | 227 | 0.0 | 0.0 | 0.00 | 0.00 | 0.05 | 90 | 1008.8 |
| 20260902051556 | 15 | 259 | 0.0 | 0.0 | 0.00 | 0.00 | 0.05 | 91 | 1008.8 |
| 20260902050110 | 15 | 242 | 0.0 | 0.0 | 0.00 | 0.00 | 0.05 | 91 | 1008.8 |
| 20260902044607 | 15 | 211 | 0.0 | 0.0 | 0.00 | 0.00 | 0.05 | 91 | 1008.7 |
| 20260902043056 | 15 | 197 | 0.0 | 0.0 | 0.00 | 0.00 | 0.05 | 91 | 1008.7 |
| 20260902041553 | 15 | 204 | 0.0 | 0.0 | 0.00 | 0.00 | 0.05 | 91 | 1008.8 |
| 20260902040056 | 15 | 222 | 0.0 | 0.0 | 0.00 | 0.00 | 0.05 | 91 | 1008.8 |